User: anonymous
Location: Mount Graham
(32.7016°N, 109.8912°W)
Time: 19:22:07
(UTC-07:00)
Language:

Cosmos 1340 - Orbit

View from above orbital plane
View from above orbital plane
View from above satellite
View from above satellite

Ground track
Ground track

The orbit data is extracted from the following two-line orbital elements,

1 13067U 82013A   14274.09049240  .00007167  00000-0  39858-3 0  4887
2 13067 081.1912 205.2004 0001883 245.7506 243.6836 15.13555149777667
Epoch (UTC): 01 October 2014 02:10:18
Eccentricity: 0.0001883
inclination: 81.1912°
perigee height: 524 km
apogee height: 526 km
right ascension of ascending node: 205.2004°
argument of perigee: 245.7506°
revolutions per day: 15.13555149
mean anomaly at epoch: 243.6836°
orbit number at epoch: 77766

The dashed part of the orbit path shows where the satellite is in the earth's shadow,  

DLR